Date String (YYYY-MM-DD hh:mm:ss) UTC,Instrument flags,absolute air pressure of the measurement (hPa),sample flow rate (lpm),inlet stack bypass flow (lpm),air temperature of the measurement (°C),ambient temperature measured by the external sensor (°C),aerosol sample conditioner tube jacket temperature (°C),OPC LED temperature (°C),internal box temperature (°C),relative humidity of the measurement (%),span deviation,mass concentration of particles derived from Lorenz-Mie calculation of OPC scattering (μg/m³),mass concentration of particles derived from Lorenz-Mie calculation of OPC scattering (μg/m³),mass concentration of particles derived from Lorenz-Mie calculation of OPC scattering (μg/m³)
DateTimeUTC,F1_M11,P_M11,Q1_M11,Q2_M11,T1_M11,T2_M11,T3_M11,T4_M11,T5_M11,U1_M11,ZSPAN_M11,X0_M11,X2_M11,X1_M11
2024-03-26 03:00:00,SystemResetWarning,0819.4,5.00,000.00,018.6,018.9,000.0,027.3,021.0,14.6,0000.0,0010.55,0007.76,0007.55
2024-03-26 03:01:00,SystemResetWarning,0819.4,4.99,000.00,018.7,018.9,000.0,027.2,021.0,14.5,0000.0,0010.86,0007.83,0007.61
2024-03-26 03:02:00,SystemResetWarning,0819.4,4.99,000.00,018.7,018.6,000.0,027.2,020.7,14.6,0000.0,0011.11,0007.89,0007.65
2024-03-26 03:03:00,SystemResetWarning,0819.3,5.01,000.00,018.7,018.3,000.0,027.1,020.5,14.6,0000.0,0011.19,0007.95,0007.70
2024-03-26 03:04:00,SystemResetWarning,0819.3,5.00,000.00,018.6,018.1,000.0,027.1,020.3,14.7,0000.0,0011.82,0008.00,0007.76
2024-03-26 03:05:00,SystemResetWarning,0819.4,5.00,000.00,018.5,017.9,000.0,027.1,020.2,14.7,0000.0,0011.85,0008.06,0007.80
2024-03-26 03:06:00,SystemResetWarning,0819.5,5.00,000.00,018.5,017.7,000.0,027.1,020.1,14.8,0000.0,0012.17,0008.12,0007.85
2024-03-26 03:07:00,SystemResetWarning,0819.3,5.00,000.00,018.4,017.5,000.0,027.1,020.0,15.0,0000.0,0012.22,0008.18,0007.90
2024-03-26 03:08:00,SystemResetWarning,0819.4,4.99,000.00,018.4,017.4,000.0,027.1,020.0,15.1,0000.0,0012.35,0008.26,0007.96
2024-03-26 03:09:00,SystemResetWarning,0819.4,5.00,000.00,018.3,017.3,000.0,027.1,020.0,15.1,0000.0,0012.58,0008.31,0008.01
2024-03-26 03:10:00,SystemResetWarning,0819.4,5.00,000.00,018.3,017.2,000.0,027.1,020.0,15.1,0000.0,0012.56,0008.34,0008.04
2024-03-26 03:11:00,SystemResetWarning,0819.4,4.99,000.00,018.3,017.1,000.0,027.1,020.0,15.2,0000.0,0012.78,0008.36,0008.06
2024-03-26 03:12:00,SystemResetWarning,0819.3,5.00,000.00,018.3,017.0,000.0,027.1,020.0,15.2,0000.0,0012.70,0008.36,0008.06
2024-03-26 03:13:00,SystemResetWarning,0819.4,5.01,000.00,018.2,016.9,000.0,027.1,020.0,15.3,0000.0,0012.55,0008.37,0008.06
2024-03-26 03:14:00,SystemResetWarning,0819.5,5.01,000.00,018.2,017.0,000.0,027.1,020.0,15.3,0000.0,0012.58,0008.38,0008.07
2024-03-26 03:15:00,SystemResetWarning,0819.3,5.00,000.00,018.3,017.7,000.0,027.2,020.3,15.3,0000.0,0011.83,0008.38,0008.08
2024-03-26 03:16:00,SystemResetWarning,0819.4,5.00,000.00,018.5,018.7,000.0,027.3,020.9,15.1,0000.0,0011.67,0008.40,0008.09
2024-03-26 03:17:00,SystemResetWarning,0819.4,4.99,000.00,018.8,019.1,000.0,027.3,021.1,14.9,0000.4,0011.78,0008.42,0008.11
2024-03-26 03:18:00,SystemResetWarning,0819.4,4.98,000.00,018.8,018.8,000.0,027.2,020.9,14.9,0000.4,0011.88,0008.43,0008.12
2024-03-26 03:19:00,SystemResetWarning,0819.4,5.01,000.00,018.7,018.5,000.0,027.2,020.6,14.9,0000.3,0011.84,0008.42,0008.12
2024-03-26 03:20:00,SystemResetWarning,0819.3,5.00,000.00,018.7,018.1,000.0,027.2,020.4,15.0,0001.4,0011.77,0008.45,0008.14
2024-03-26 03:21:00,SystemResetWarning,0819.4,5.00,000.00,018.6,017.8,000.0,027.2,020.2,15.0,0001.5,0011.67,0008.42,0008.12
2024-03-26 03:22:00,SystemResetWarning,0819.3,4.99,000.00,018.5,017.6,000.0,027.2,020.1,15.0,0001.6,0011.52,0008.41,0008.12
2024-03-26 03:23:00,SystemResetWarning,0819.3,5.00,000.00,018.4,017.4,000.0,027.1,020.0,15.0,0001.3,0011.42,0008.41,0008.12
2024-03-26 03:24:00,SystemResetWarning,0819.4,5.01,000.00,018.4,017.3,000.0,027.2,020.0,15.0,0001.4,0011.35,0008.41,0008.12
2024-03-26 03:25:00,SystemResetWarning,0819.4,5.00,000.00,018.3,017.2,000.0,027.2,020.0,15.0,0001.2,0011.31,0008.40,0008.13
2024-03-26 03:26:00,SystemResetWarning,0819.4,4.99,000.00,018.3,017.0,000.0,027.2,020.0,15.0,0000.5,0012.89,0008.42,0008.14
2024-03-26 03:27:00,SystemResetWarning,0819.5,4.99,000.00,018.3,016.9,000.0,027.2,020.0,15.0,0001.1,0012.66,0008.44,0008.15
2024-03-26 03:28:00,SystemResetWarning,0819.4,5.01,000.00,018.3,016.9,000.0,027.2,020.0,15.0,0001.0,0012.30,0008.45,0008.15
2024-03-26 03:29:00,SystemResetWarning,0819.4,5.01,000.00,018.2,017.0,000.0,027.2,020.1,15.0,0000.0,0013.62,0008.45,0008.14
2024-03-26 03:30:00,SystemResetWarning,0819.4,5.00,000.00,018.4,017.8,000.0,027.2,020.4,14.9,0000.0,0013.77,0008.45,0008.13
2024-03-26 03:31:00,SystemResetWarning,0819.4,5.00,000.00,018.6,018.7,000.0,027.3,021.0,14.7,0000.0,0013.83,0008.44,0008.11
2024-03-26 03:32:00,SystemResetWarning,0819.5,5.00,000.00,018.8,019.2,000.0,027.3,021.1,14.5,0000.0,0013.90,0008.47,0008.12
2024-03-26 03:33:00,SystemResetWarning,0819.5,4.98,000.00,018.8,018.8,000.0,027.3,020.9,14.5,0000.0,0013.84,0008.47,0008.14
2024-03-26 03:34:00,SystemResetWarning,0819.5,5.00,000.00,018.8,018.5,000.0,027.2,020.6,14.5,0000.0,0013.76,0008.44,0008.13
2024-03-26 03:35:00,SystemResetWarning,0819.4,5.01,000.00,018.7,018.2,000.0,027.2,020.5,14.6,0000.0,0013.73,0008.43,0008.14
2024-03-26 03:36:00,SystemResetWarning,0819.4,5.01,000.00,018.7,017.9,000.0,027.2,020.3,14.7,0000.0,0013.80,0008.44,0008.14
2024-03-26 03:37:00,SystemResetWarning,0819.4,5.00,000.00,018.6,017.7,000.0,027.2,020.1,14.8,0000.0,0013.10,0008.42,0008.11
2024-03-26 03:38:00,SystemResetWarning,0819.4,4.99,000.00,018.5,017.5,000.0,027.2,020.0,14.8,0000.0,0012.38,0008.38,0008.08
2024-03-26 03:39:00,SystemResetWarning,0819.4,4.99,000.00,018.4,017.3,000.0,027.2,020.0,14.8,0000.0,0012.79,0008.35,0008.05
2024-03-26 03:40:00,SystemResetWarning,0819.3,5.01,000.00,018.4,017.3,000.0,027.2,020.0,14.7,0000.0,0011.82,0008.35,0008.04
2024-03-26 03:41:00,SystemResetWarning,0819.4,5.01,000.00,018.3,017.2,000.0,027.1,020.0,14.6,0000.0,0011.47,0008.35,0008.04
2024-03-26 03:42:00,SystemResetWarning,0819.4,5.00,000.00,018.3,017.2,000.0,027.1,020.0,14.7,0000.0,0011.37,0008.36,0008.05
2024-03-26 03:43:00,SystemResetWarning,0819.4,4.99,000.00,018.3,017.1,000.0,027.1,020.0,14.8,0000.0,0011.29,0008.34,0008.04
2024-03-26 03:44:00,SystemResetWarning,0819.4,4.99,000.00,018.3,017.1,000.0,027.1,020.0,14.9,0000.0,0011.28,0008.33,0008.02
2024-03-26 03:45:00,SystemResetWarning,0819.4,5.01,000.00,018.2,017.0,000.0,027.1,020.0,15.0,0000.0,0011.96,0008.35,0008.04
2024-03-26 03:46:00,SystemResetWarning,0819.4,5.01,000.00,018.2,017.0,000.0,027.1,020.0,15.1,0000.0,0011.93,0008.34,0008.04
2024-03-26 03:47:00,SystemResetWarning,0819.5,4.99,000.00,018.2,017.0,000.0,027.2,020.0,15.1,0000.0,0011.93,0008.34,0008.03
2024-03-26 03:48:00,SystemResetWarning,0819.5,5.01,000.00,018.3,017.6,000.0,027.2,020.3,15.1,0000.0,0011.68,0008.35,0008.05
2024-03-26 03:49:00,SystemResetWarning,0819.5,5.00,000.00,018.5,018.6,000.0,027.3,020.8,15.0,0000.0,0011.71,0008.39,0008.08
2024-03-26 03:50:00,SystemResetWarning,0819.5,4.98,000.00,018.8,019.1,000.0,027.3,021.1,14.8,0000.0,0011.42,0008.38,0008.09
2024-03-26 03:51:00,SystemResetWarning,0819.5,5.00,000.00,018.8,018.9,000.0,027.2,020.9,14.7,0000.0,0011.22,0008.37,0008.09
2024-03-26 03:52:00,SystemResetWarning,0819.5,5.00,000.00,018.8,018.6,000.0,027.2,020.7,14.8,0000.0,0011.00,0008.37,0008.10
2024-03-26 03:53:00,SystemResetWarning,0819.5,5.00,000.00,018.7,018.3,000.0,027.2,020.5,14.8,0000.0,0011.51,0008.36,0008.09
2024-03-26 03:54:00,SystemResetWarning,0819.5,5.00,000.00,018.7,018.1,000.0,027.2,020.3,14.8,0000.0,0011.49,0008.33,0008.08
2024-03-26 03:55:00,SystemResetWarning,0819.5,5.01,000.00,018.6,017.9,000.0,027.2,020.2,14.9,0000.0,0011.42,0008.31,0008.08
2024-03-26 03:56:00,SystemResetWarning,0819.5,5.00,000.00,018.5,017.7,000.0,027.2,020.1,15.0,0000.0,0011.18,0008.29,0008.07
2024-03-26 03:57:00,SystemResetWarning,0819.5,5.00,000.00,018.5,017.5,000.0,027.1,020.1,15.0,0000.0,0011.25,0008.28,0008.07
2024-03-26 03:58:00,SystemResetWarning,0819.5,5.00,000.00,018.4,017.4,000.0,027.1,020.0,15.1,0000.0,0011.23,0008.27,0008.06
2024-03-26 03:59:00,SystemResetWarning,0819.7,5.00,000.00,018.4,017.3,000.0,027.1,020.0,15.1,0000.0,0011.52,0008.26,0008.06
